Date,TemperatureHighF,TemperatureAvgF,TemperatureLowF,DewpointHighF,DewpointAvgF,DewpointLowF,HumidityHigh,HumidityAvg,HumidityLow,PressureMaxIn,PressureMinIn,WindSpeedMaxMPH,WindSpeedAvgMPH,GustSpeedMaxMPH,PrecipitationSumIn
2013-1-1,29.9,20.5,9.0,25.0,12.7,2.0,85,72,60,29.92,29.68,26,12,40,0.00
2013-1-2,17.2,8.7,-2.6,10.0,0.8,-10.0,79,71,55,30.13,29.90,30,15,42,0.00
2013-1-3,15.7,7.9,-2.6,10.0,-2.8,-10.0,77,62,44,30.16,30.02,20,10,29,0.00
2013-1-4,31.1,26.0,14.6,24.0,20.3,9.0,91,79,66,30.00,29.80,24,11,40,0.00
2013-1-5,29.8,26.0,20.4,26.0,17.5,13.0,88,71,56,30.28,29.80,26,10,38,0.00
2013-1-6,32.0,26.3,19.3,28.0,20.2,-99.9,93,80,70,30.23,29.97,14,-7,24,0.00
2013-1-7,32.9,26.5,21.5,30.0,18.7,10.0,92,73,52,30.41,29.98,12,5,25,0.00
2013-1-8,39.1,32.1,22.4,23.0,20.9,15.0,78,64,50,30.39,30.26,26,11,37,0.00
2013-1-9,38.9,33.5,28.3,31.0,25.9,22.0,84,74,63,30.41,29.96,25,5,42,0.01
2013-1-10,38.7,34.5,29.9,32.0,25.5,23.0,89,70,59,30.55,29.98,29,12,47,0.00
2013-1-11,35.5,31.5,27.1,33.0,25.0,22.0,97,78,60,30.54,30.26,7,1,11,0.08
2013-1-12,38.8,35.4,32.3,39.0,34.9,32.0,99,98,96,30.25,30.15,10,2,16,0.11
2013-1-13,45.7,38.7,33.5,46.0,38.5,33.0,99,99,98,30.18,29.98,13,4,22,0.01
2013-1-14,51.9,42.6,31.9,47.0,37.3,24.0,99,82,61,30.25,29.87,39,12,41,0.00
2013-1-15,33.6,29.7,27.6,25.0,21.3,19.0,80,71,59,30.34,30.23,14,5,20,0.00
2013-1-16,29.1,27.1,25.1,28.0,24.2,19.0,97,89,67,30.28,29.82,13,1,18,0.00
2013-1-17,34.3,26.0,14.6,28.0,19.3,1.0,96,76,54,30.13,29.82,23,10,34,0.03
2013-1-18,17.1,10.8,1.8,5.0,-5.3,-14.0,61,49,37,30.43,30.09,31,10,41,0.00
2013-1-19,39.8,28.9,15.5,25.0,16.6,4.0,74,60,53,30.37,29.88,19,8,29,0.03
2013-1-20,43.7,34.0,19.1,33.0,20.8,0.0,90,60,41,29.88,29.50,42,15,57,0.03
2013-1-21,22.3,16.3,11.1,15.0,1.9,-99.9,92,59,43,30.05,29.84,25,-14,39,0.00
2013-1-22,16.9,11.3,2.8,13.0,4.9,-5.0,92,77,45,30.07,29.81,16,6,29,0.00
2013-1-23,2.6,-2.9,-8.1,-5.0,-13.4,-18.0,83,62,45,30.16,30.05,20,10,29,0.00
2013-1-24,7.6,-1.2,-9.8,-8.0,-16.1,-99.9,66,52,34,30.26,30.09,32,6,46,0.00
2013-1-25,13.9,5.6,-1.9,-5.0,-8.8,-99.9,71,55,38,30.32,30.11,30,3,41,0.00
2013-1-26,15.2,9.4,5.9,1.0,-3.4,-9.0,73,57,40,30.23,30.06,27,10,33,0.00
2013-1-27,18.9,12.1,5.4,1.0,-2.7,-9.0,73,53,35,30.50,30.23,32,12,39,0.00
2013-1-28,21.6,16.1,11.8,15.0,2.2,-12.0,93,60,26,30.48,30.11,18,4,21,0.00
2013-1-29,31.2,24.8,17.0,31.0,22.6,15.0,97,91,80,30.25,30.11,5,1,8,0.14
2013-1-30,55.2,42.6,31.0,54.0,42.1,30.0,99,98,96,30.19,29.45,22,6,37,0.43
2013-1-31,57.1,41.2,23.7,56.0,33.4,9.0,99,75,49,29.47,28.85,42,18,60,0.73